Current weather by "City, St" or "zip code"  
 
Advertise Here

Current Conditions: Fairfield / Travis Air Force Base, CA

Fair and Breezy


67.0 F

Last Updated on Sep 16 2021, 6:58 pm PDT
Humidity: 62%
Wind Speed: SW 23.0 mph
Barometer 29.76 in
Dewpoint: 53.1 F
Visibility: 10.00 mi
Precip: --
Heat Index: NA
Wind Chill: NA
Current conditions at:

Fairfield / Travis Air Force Base, CA (KSUU)

Lat: 38.26667 Lon: 121.95

Local Radar Image active severe weather and emergency alerts image image weather storm and storm spotter reports image weather observation monitoring service image
Local
Radar
Active
Alerts
Storm Reports Obs
Monitoring

Sign-up For Email & Text Message Weather Alert Notification Services



Advertise Here

Observation History for Fairfield / Travis Air Force Base, CA


Time Wind
(mph)
Vis
(mi)
Weather Precip (in) Temperature (F) Relative
Humidity
Wind
Chill
(F)
Heat
Index
(F)
Pressure
Air Dwpt altimeter
(in)
sea level
(mb)
Rmks
6:58 pm PDT SW 23.0 10.00 Fair and Breezy -- 67.0 53.1 62% NA NA 29.76 1008.4
5:58 pm PDT SW 23.0 10.00 Fair and Breezy -- 73.0 53.6 51% NA NA 29.76 1008.4
4:58 pm PDT SW 19.6 10.00 Fair -- 77.0 54.7 46% NA NA 29.77 1008.8
3:58 pm PDT SW 16.1 G 24.2 10.00 Fair -- 78.0 54.0 43% NA NA 29.78 1009.1
2:58 pm PDT SW 18.4 10.00 Fair -- 77.0 53.4 44% NA NA 29.80 1009.8
1:58 pm PDT SW 15.0 10.00 Fair -- 76.0 53.6 46% NA NA 29.81 1010.1
12:58 pm PDT SW 11.5 10.00 Fair -- 74.0 53.4 48% NA NA 29.82 1010.4
11:58 am PDT SW 13.8 10.00 Fair -- 72.0 53.6 53% NA NA 29.84 1011.1
10:58 am PDT SW 15.0 10.00 Fair -- 67.0 52.9 60% NA NA 29.84 1011.1
9:58 am PDT SW 16.1 10.00 Fair -- 64.0 52.0 64% NA NA 29.84 1011.1
8:58 am PDT SW 19.6 10.00 Fair -- 61.0 52.0 73% 58 NA 29.83 1010.8
7:58 am PDT SW 18.4 10.00 Fair -- 57.0 52.0 83% 53 NA 29.82 1010.5
6:58 am PDT SW 19.6 G 24.2 10.00 Fair -- 55.0 51.6 87% 50 NA 29.80 1009.8
5:58 am PDT SW 23.0 G 28.8 10.00 Fair and Breezy -- 55.0 52.0 88% 50 NA 29.79 1009.4
4:58 am PDT SW 20.7 10.00 Fair and Breezy -- 56.0 52.2 88% 51 NA 29.77 1008.8
3:58 am PDT SW 26.5 G 32.2 10.00 Fair and Windy -- 56.0 52.2 87% 51 NA 29.78 1009.1
2:58 am PDT SW 29.9 G 36.8 10.00 A Few Clouds and Windy -- 56.0 52.2 86% 50 NA 29.77 1008.7
1:58 am PDT SW 31.1 G 39.1 10.00 A Few Clouds and Windy -- 57.0 52.2 85% 51 NA 29.78 1009.1
12:58 am PDT SW 27.6 G 36.8 10.00 Fair and Windy 00.01 57.0 52.2 84% 52 NA 29.79 1009.4
11:58 pm PDT SW 29.9 G 35.7 10.00 Fair and Windy -- 57.0 52.2 83% 52 NA 29.79 1009.4
10:58 pm PDT SW 32.2 G 38.0 10.00 Fair and Windy -- 57.0 51.6 81% 51 NA 29.79 1009.4
9:58 pm PDT SW 29.9 G 39.1 10.00 Fair and Windy 00.02 58.0 51.4 78% 53 NA 29.79 1009.4
8:58 pm PDT SW 29.9 G 35.7 10.00 Fair and Windy -- 60.0 50.9 72% 56 NA 29.79 1009.4
7:58 pm PDT SW 27.6 G 33.4 10.00 Fair and Windy -- 62.0 50.9 66% 59 NA 29.78 1009.1

Regional Weather Observation


Concord, Buchanan Field, CA (KCCR)

Fair
66.0 F

Vacaville Nut Tree Airport, CA (KVCB)

Fair
73.0 F

Fairfield / Travis Air Force Base, CA (KSUU)

Fair and Breezy
67.0 F

Petaluma Municipal Airport, CA (KO69)

Fair
59.0 F

Novato / Gnoss Field, CA (KDVO)

Fair
64.0 F

Yolo County Airport, CA (KDWA)

Fair
81.0 F
Advertise Here


Advertise Here